Location: C�mpuri de-Sus
(45.9500°N, 22.5500°E)
Time: 13:28:08
(UTC+00:00)

In-Cosmos 22 Rocket - Pass Details

Date: 24 October 2021
Orbit: 790 x 888 km, 81.2° (Epoch: 06 December)

Event Time Altitude Azimuth Distance (km) Brightness Sun altitude
Rises 16:49:27 0° 352° (N) 3,308 7.4 -14.7°
Reaches altitude 10° 16:51:54 10° 357° (N) 2,369 6.6 -15.2°
Maximum altitude 16:57:08 57° 76° (ENE) 932 4.1 -16.1°
Drops below altitude 10° 17:02:21 10° 154° (SSE) 2,357 6.3 -17.0°
Sets 17:04:46 0° 159° (SSE) 3,289 7.1 -17.4°
